Weather History for Cincinnati, OH

Change the Weather History Date:

Monday, December 16, 2013

  Actual Average Record
Temperature  
Mean Temperature 32 °F -  
Max Temperature 36 °F 41 °F 68 °F (1984)
Min Temperature 28 °F 26 °F -4 °F (1989)
Degree Days  
Heating Degree Days 33    
Moisture  
Dew Point 28 °F    
Average Humidity 90    
Maximum Humidity 96    
Minimum Humidity 78    
Precipitation  
Precipitation 0.05 in - - ()
Sea Level Pressure  
Sea Level Pressure 30.11 in    
Wind  
Wind Speed 4 mph (SSW)    
Max Wind Speed 7 mph    
Max Gust Speed -    
Visibility 4 miles    
Events Snow    
Averages and records for this station are not official NWS values.
T = Trace of Precipitation, MM = Missing Value Source: NWS Daily Summary

Daily Weather History Graph

Daily Weather History Graph

Search for Another Location

Airport:

Trip Planner

Search our weather history database for the weather conditions in past years. The results will help you decide how hot, cold, wet, or windy it might be!

Date:

Astronomy

Dec. 16, 2013 Rise Set
Actual Time 7:50 AM EST 5:16 PM EST
Civil Twilight 7:20 AM EST 5:46 PM EST
Nautical Twilight 6:46 AM EST 6:20 PM EST
Astronomical Twilight 6:14 AM EST 6:52 PM EST
Moon 5:05 PM EST (12/16) 6:58 AM EST (12/16)
Length of Visible Light 10h 26m
Length of Day
9h 25m
Full, 100% of the Moon is Illuminated
Dec 16
Full
Dec 17
Full
Dec 25
Last Quarter
Jan 1
New
Jan 7
First Quarter

Hourly Weather History & Observations

Time (EST) Temp. Windchill Dew Point Humidity Pressure Visibility Wind Dir Wind Speed Gust Speed Precip Events Conditions
12:53 AM 28.9 °F 21.9 °F 23.0 °F 78% 30.16 in 6.0 mi SW 6.9 mph - 0.00 in   Haze
1:53 AM 28.0 °F 21.7 °F 24.1 °F 85% 30.15 in 3.0 mi SW 5.8 mph - 0.00 in Snow Light Snow
2:15 AM 28.4 °F 22.2 °F 24.8 °F 86% 30.14 in 2.0 mi SW 5.8 mph - 0.00 in Snow Light Snow
2:30 AM 28.4 °F 22.2 °F 26.6 °F 93% 30.14 in 1.8 mi SSW 5.8 mph - 0.00 in Snow Light Snow
2:53 AM 28.0 °F 21.7 °F 26.1 °F 92% 30.16 in 1.8 mi South 5.8 mph - 0.01 in Snow Light Snow
3:01 AM 28.4 °F 22.2 °F 26.6 °F 93% 30.14 in 2.5 mi South 5.8 mph - 0.00 in Snow Light Snow
3:08 AM 28.4 °F 22.2 °F 26.6 °F 93% 30.14 in 3.0 mi South 5.8 mph - 0.00 in Snow Light Snow
3:28 AM 28.4 °F 23.3 °F 26.6 °F 93% 30.14 in 3.0 mi South 4.6 mph - 0.00 in Snow Light Snow
3:37 AM 28.4 °F 24.6 °F 26.6 °F 93% 30.14 in 2.0 mi South 3.5 mph - 0.00 in Snow Light Snow
3:45 AM 28.4 °F 24.6 °F 26.6 °F 93% 30.13 in 1.5 mi SSW 3.5 mph - 0.00 in Snow Light Snow
3:53 AM 28.0 °F 22.8 °F 27.0 °F 96% 30.15 in 1.5 mi South 4.6 mph - 0.00 in Snow Light Snow
4:00 AM 28.4 °F 23.3 °F 26.6 °F 93% 30.13 in 2.0 mi South 4.6 mph - 0.00 in Snow Light Snow
4:27 AM 28.4 °F 24.6 °F 26.6 °F 93% 30.13 in 2.5 mi South 3.5 mph - 0.00 in Snow Light Snow
4:53 AM 28.0 °F 24.2 °F 27.0 °F 96% 30.14 in 2.0 mi South 3.5 mph - 0.00 in Snow Light Snow
5:06 AM 28.4 °F - 26.6 °F 93% 30.12 in 2.0 mi Calm Calm - 0.00 in Snow Light Snow
5:29 AM 28.4 °F 24.6 °F 26.6 °F 93% 30.12 in 1.5 mi South 3.5 mph - 0.01 in Snow Light Snow
5:53 AM 28.0 °F 24.2 °F 27.0 °F 96% 30.13 in 1.5 mi South 3.5 mph - 0.01 in Snow Light Snow
6:44 AM 28.4 °F - 26.6 °F 93% 30.12 in 2.0 mi Calm Calm - 0.01 in Snow Light Snow
6:53 AM 28.9 °F - 27.0 °F 92% 30.14 in 2.5 mi Calm Calm - 0.01 in Snow Light Snow
6:58 AM 28.4 °F - 26.6 °F 93% 30.12 in 3.0 mi Calm Calm - 0.01 in Snow Light Snow
7:53 AM 30.0 °F - 27.0 °F 88% 30.15 in 3.0 mi Calm Calm - 0.01 in Snow Light Snow
8:53 AM 30.0 °F - 28.0 °F 92% 30.15 in 2.0 mi Calm Calm - 0.00 in Snow Light Snow
9:00 AM 30.2 °F - 28.4 °F 93% 30.13 in 2.0 mi Calm Calm - 0.00 in Snow Light Snow
9:53 AM 30.9 °F - 28.9 °F 92% 30.15 in 2.5 mi Calm Calm - 0.00 in Snow Light Snow
10:53 AM 32.0 °F - 28.9 °F 88% 30.15 in 2.5 mi Calm Calm - 0.01 in Snow Light Snow
11:53 AM 33.1 °F 30.0 °F 30.0 °F 89% 30.13 in 5.0 mi SSW 3.5 mph - 0.00 in   Overcast
12:53 PM 34.0 °F - 30.0 °F 85% 30.10 in 5.0 mi Calm Calm - N/A   Overcast
1:00 PM 33.8 °F - 30.2 °F 87% 30.08 in 7.0 mi Calm Calm - N/A   Overcast
1:53 PM 35.1 °F 30.1 °F 30.0 °F 82% 30.07 in 7.0 mi SSW 5.8 mph - N/A   Overcast
2:53 PM 36.0 °F 31.1 °F 30.9 °F 82% 30.06 in 7.0 mi SSW 5.8 mph - N/A   Overcast
3:53 PM 36.0 °F - 30.9 °F 82% 30.08 in 8.0 mi Calm Calm - N/A   Overcast
4:53 PM 35.1 °F - 32.0 °F 89% 30.09 in 7.0 mi Calm Calm - N/A   Overcast
5:53 PM 35.1 °F - 32.0 °F 89% 30.09 in 8.0 mi Calm Calm - N/A   Overcast
6:53 PM 34.0 °F - 30.9 °F 89% 30.07 in 8.0 mi Calm Calm - N/A   Overcast
7:08 PM 35.6 °F - 32.0 °F 87% 30.07 in 8.0 mi Calm Calm - N/A   Overcast
7:53 PM 34.0 °F - 32.0 °F 92% 30.07 in 7.0 mi Calm Calm - N/A   Overcast
8:53 PM 33.1 °F - 32.0 °F 96% 30.06 in 6.0 mi Calm Calm - N/A   Scattered Clouds
9:53 PM 32.0 °F 27.5 °F 30.0 °F 92% 30.04 in 6.0 mi SSW 4.6 mph - N/A   Scattered Clouds
10:53 PM 32.0 °F - 30.0 °F 92% 30.05 in 6.0 mi Calm Calm - N/A   Clear
11:53 PM 30.9 °F - 28.9 °F 92% 30.04 in 5.0 mi Calm Calm - N/A   Mostly Cloudy